Regional Weather Roundup
Issued by NWS

Home | Current Version | Previous Version | Graphics & Text | Print | Product List | Glossary On
Versions: 1 2 3 4 5 6 7 8 9 10 11 12 13 14 15 16 17 18 19 20 21 22 23 24 25 26 27 28 29 30 31 32 33 34 35 36 37 38 39 40 41 42 43 44 45 46 47 48 49 50
643
ASUS44 KJAN 222310
RWRMS

MISSISSIPPI HOURLY WEATHER ROUNDUP
NATIONAL WEATHER SERVICE JACKSON MS
600 PM CDT TUE APR 22 2014

NOTE: "FAIR: INDICATES FEW OR NO CLOUDS BELOW 12,000 FEET WITH NO
SIGNIFICANT WEATHER AND/OR OBSTRUCTIONS TO VISIBILITY.

MSZ001>002-007>008-010>013-018>021-025>028-034>036-230000-
NORTHWEST MISSISSIPPI

CITY           SKY/WX    TMP DP  RH WIND       PRES   REMARKS
CLARKSDALE       N/A     77  55  47 N14       29.91S
CLEVELAND      FAIR      76  60  57 N14       29.89F
GREENWOOD      SUNNY     75  60  59 NW7       29.89S
GREENVILLE     SUNNY     75  61  61 N5        29.90S
GRENADA        FAIR      75  59  57 NW13      29.88S
OLIVE BRANCH   MOSUNNY   73  54  49 N12       29.91S
OXFORD         FAIR      73  55  53 N7        29.91S
TUNICA         CLEAR     73  52  46 N12       29.91F
$$

MSZ003>006-009-014>017-022>024-029>033-037>039-230000-
NORTHEAST MISSISSIPPI

CITY           SKY/WX    TMP DP  RH WIND       PRES   REMARKS
BELMONT        FAIR      74  59  58 NW5       29.86S
COLUMBUS AFB   MOSUNNY   76  60  56 NW2       29.86F
CORINTH        FAIR      75  55  50 NW13      29.87S
GOLDN TRIANGLE MOSUNNY   75  61  60 CALM      29.89F
STARKVILLE     CLOUDY    73  59  60 CALM      29.87S
TUPELO         PTSUNNY   77  59  53 NE13      29.86S
$$

MSZ040-058-230000-
CENTRAL MISSISSIPPI

CITY           SKY/WX    TMP DP  RH WIND       PRES   REMARKS
JACKSON INTL   PTSUNNY   77  60  55 N8        29.88F
JACKSON HAWKNS MOSUNNY   77  59  53 MISG      29.89F
MERIDIAN KEY   PTSUNNY   70  62  76 CALM      29.89F
MERIDIAN NAS   MOSUNNY   71  62  73 W7        29.89S
RAYMOND        FAIR      73  68  83 N3        29.89F
VICKSBURG      SUNNY     78  61  55 N8        29.90F
$$

MSZ059>079-230000-
SOUTH MISSISSIPPI

CITY           SKY/WX    TMP DP  RH WIND       PRES   REMARKS
BROOKHAVEN     FAIR      73  64  73 NW5       29.92F
HATTIESBURG    MOSUNNY   74  64  71 N7        29.89S
MCCOMB         MOSUNNY   75  61  61 N8        29.90F
NATCHEZ        SUNNY     75  61  60 N8        29.91F
PINE BELT      PTSUNNY   72  61  68 N8        29.90S
$$

MSZ080>082-230000-
COASTAL MISSISSIPPI

CITY           SKY/WX    TMP DP  RH WIND       PRES   REMARKS
BAY ST LOUIS   PTSUNNY   75  64  69 W9        29.88S
BILOXI         PTSUNNY   71  67  87 SW12      29.87F
PASCAGOULA     PTSUNNY   72  66  81 SW8       29.88R
GULFPORT       PTSUNNY   75  64  68 SW5       29.87S
$$



USA.gov is the U.S. government's official web portal to all federal, state and local government web resources and services.